Hourly Data Report for October 18, 2016

All times are specified in Local Standard Time (LST). Add 1 hour to adjust for Daylight Saving Time where and when it is observed.

TORONTO INTL A
ONTARIO

43°40'36.000" N
79°37'50.000" W
173.40 m
6158731
71624
YYZ

Download Data

Hourly Data (October 2016)
Hourly Data Report for October 18, 2016
Temp Definition
°C
Dew Point Temp Definition
°C
Rel Hum Definition
%
Wind Dir Definition
10's deg

Wind Spd Definition
km/h
Visibility Definition
km
Stn Press Definition
kPa
Hmdx Definition


Wind Chill Definition


Weather Definition


TIME
00:00 Legend Double Dagger 17.9 16.3 90 14 9 24.1 98.48     LegendNANA
01:00 Legend Double Dagger 18.0 15.8 87 15 11 24.1 98.43     Mainly Clear
02:00 Legend Double Dagger 20.7 15.1 70 20 15 24.1 98.40 25   LegendNANA
03:00 Legend Double Dagger 20.6 15.2 71 20 19 24.1 98.32 25   LegendNANA
04:00 Legend Double Dagger 20.3 15.4 73 19 18 24.1 98.27 25   Mainly Clear
05:00 Legend Double Dagger 20.8 15.7 72 21 21 24.1 98.23 25   LegendNANA
06:00 Legend Double Dagger 21.6 15.8 69 22 26 24.1 98.19 26   LegendNANA
07:00 Legend Double Dagger 21.8 16.0 69 22 32 24.1 98.16 26   Mainly Clear
08:00 Legend Double Dagger 22.5 15.9 66 23 32 24.1 98.21 27   LegendNANA
09:00 Legend Double Dagger 23.3 16.5 65 23 31 24.1 98.17 28   LegendNANA
10:00 Legend Double Dagger 23.9 16.3 62 23 37 24.1 98.12 29   Mostly Cloudy
11:00 Legend Double Dagger 24.8 16.4 59 22 39 24.1 98.07 30   LegendNANA
12:00 Legend Double Dagger 24.7 16.8 61 22 38 24.1 98.07 30   LegendNANA
13:00 Legend Double Dagger 25.2 17.0 60 23 38 24.1 98.04 30   Mostly Cloudy
14:00 Legend Double Dagger 25.1 17.4 62 24 37 24.1 98.11 31   LegendNANA
15:00 Legend Double Dagger 24.0 17.4 66 24 44 24.1 98.17 30   LegendNANA
16:00 Legend Double Dagger 24.5 17.6 65 24 36 24.1 98.21 30   Mostly Cloudy
17:00 Legend Double Dagger 23.7 17.6 68 23 26 24.1 98.23 29   LegendNANA
18:00 Legend Double Dagger 22.7 17.9 74 24 28 24.1 98.33 29   LegendNANA
19:00 Legend Double Dagger 19.4 14.9 75 31 29 24.1 98.55     Mainly Clear
20:00 Legend Double Dagger 17.9 13.5 75 34 23 24.1 98.67     LegendNANA
21:00 Legend Double Dagger 15.9 11.5 75 32 19 24.1 98.76     LegendNANA
22:00 Legend Double Dagger 15.0 10.5 74 31 19 24.1 98.89     Clear
23:00 Legend Double Dagger 14.2 10.7 79 31 11 24.1 98.96     LegendNANA

Notes on Data Quality.

Legend

  • E = Estimated
  • M = Missing
  • NA = Not Available
  • ‡ = Partner data that is not subject to review by the National Climate Archives
Date modified: